Location: Bittkow
(50.3000°N, 19.0000°E)
Time: 03:08:46
(UTC+00:00)

Cosmos 1328 Rocket - Pass Details

Date: 19 September 2020
Orbit: 601 x 627 km, 82.5° (Epoch: 18 October)

Event Time Altitude Azimuth Distance (km) Brightness Sun altitude
Exits shadow 01:51:44 78° 164° (SSE) 648 3.5 -23.9°
Maximum altitude 01:52:01 85° 97° (E) 638 3.5 -23.9°
Drops below altitude 10° 01:56:30 10° 11° (N) 2,017 6.8 -23.3°
Sets 01:58:44 0° 11° (N) 2,927 7.7 -23.0°
